Location: Unspecified
(0.0000°N, 0.0000°E)
Time: 21:02:32
(UTC+00:00)

FREGAT DEB - Visible Passes

Search period start: 14 January 2025 00:00
Search period end: 24 January 2025 00:00
Orbit: 867 x 2521 km, 51.1° (Epoch: 08 September)

Date Brightness Start Highest point End Pass type
(mag) Time Alt. Az. Time Alt. Az. Time Alt. Az.
14 Jan ? 18:20:29 10° NW 18:40:19 80° WSW 19:03:18 10° SSE visible
14 Jan ? 20:51:55 10° W 21:07:52 24° SW 21:23:28 10° S visible
15 Jan ? 04:45:22 10° S 04:50:27 19° SE 04:54:35 10° E visible
15 Jan ? 19:19:27 10° WNW 19:39:01 48° SW 20:00:02 10° SSE visible
16 Jan ? 05:40:39 10° SSW 05:47:39 67° SE 05:53:08 10° NE visible
16 Jan ? 20:22:14 10° W 20:38:35 25° SW 20:54:55 10° S visible
17 Jan ? 04:16:54 10° S 04:22:02 19° SE 04:26:12 10° E visible
17 Jan ? 18:50:37 10° NW 19:09:56 50° SW 19:31:23 10° SSE visible
18 Jan ? 05:12:22 10° SSW 05:19:38 62° SE 05:25:09 10° NE visible
18 Jan ? 19:53:12 10° W 20:09:47 26° SW 20:26:46 10° S visible
19 Jan ? 03:48:52 10° S 03:54:07 18° SE 03:58:19 10° E visible
19 Jan ? 18:22:20 10° NW 18:41:20 52° SW 19:03:10 10° SSE visible
19 Jan ? 21:07:50 10° SW 21:11:19 10° SW 21:14:45 10° SW visible
20 Jan ? 04:44:31 10° SSW 04:52:05 59° SE 04:57:38 10° NE visible
20 Jan ? 19:24:47 10° W 19:41:28 28° SW 19:59:00 10° S visible
21 Jan ? 03:21:14 10° S 03:26:40 18° SE 03:30:58 10° E visible
21 Jan ? 05:42:56 10° WSW 05:49:12 37° WNW 05:54:19 10° N visible
21 Jan ? 17:54:38 10° NW 18:13:16 53° SW 18:35:23 10° SSE visible
21 Jan ? 20:37:20 10° WSW 20:43:17 11° SW 20:49:10 10° SSW visible
22 Jan ? 04:17:07 10° SSW 04:25:01 57° SE 04:30:37 10° NE visible
22 Jan ? 18:56:59 10° WNW 19:13:41 29° SW 19:31:40 10° S visible
23 Jan ? 02:54:01 10° S 02:59:41 18° SE 03:04:07 10° E visible
23 Jan ? 05:15:46 10° SW 05:22:24 40° WNW 05:27:37 10° NNE visible
23 Jan ? 20:08:23 10° WSW 20:15:45 12° SW 20:23:06 10° SSW visible
